YAOGAN-7

Last updated on Mon Oct 14 2024 00:02:24 GMT+0000 (Coordinated Universal Time)

1 36110U 09069A 24287.54117023 .00002279 00000+0 33198-3 0 9997 2 36110 98.0848 163.6560 0024441 205.6307 154.3692 14.76656208799353
UTC large
Height (km)
Speed (km/s)
/
Latitude / Longitude
Inclination (degrees)
Orbital Period (minutes)
Azimuth
Elevation
Range (km)
Doppler Factor

Next 0 passes for location: London (51.5072 / 0.1276)

Sorry there are no passes over London.